Regional Weather Roundup
Issued by NWS

Home | Current Version | Previous Version | Text Only | Print | Product List | Glossary Off
Versions: 1 2 3 4 5 6 7 8 9 10 11 12 13 14 15 16 17 18 19 20 21 22 23 24 25 26 27 28 29 30 31 32 33 34 35 36 37 38 39 40 41 42 43 44 45 46 47 48 49 50

000
ASUS45 KCYS 242310
RWRWY

WYOMING REGIONAL WEATHER ROUNDUP
NATIONAL WEATHER SERVICE CHEYENNE WY
400 PM MST SAT JAN 24 2015

NOTE:  "FAIR" INDICATES FEW OR NO CLOUDS BELOW 12,000 FEET
WITH NO SIGNIFICANT WEATHER AND/OR OBSTRUCTIONS TO VISIBILITY.

WYZ001-250000-
YELLOWSTONE NATIONAL PARK

CITY           SKY/WX    TMP DP  RH WIND       PRES   REMARKS
LK YELLOWSTONE   N/A     28  21  75 VRB3      30.31S
W YELLOWSTONE  NOT AVBL

$$
WYZ002>013-054>058-071-098>099-250000-
NORTHERN WYOMING

CITY           SKY/WX    TMP DP  RH WIND       PRES   REMARKS
JACKSON        CLOUDY    25  23  93 N12       30.33S WCI  14
CODY           FAIR      45  25  45 NW10      30.10F
GREYBULL       FAIR      30  24  78 CALM      30.11R
WORLAND        FAIR      30  25  81 S6        30.11S WCI  24
SHERIDAN       MIX PCPN  36  32  85 W22       30.09S WCI  25
BUFFALO        LGT SNOW  34  32  92 NW24G36   30.08S FOG     WCI  21
GILLETTE       CLOUDY    37  34  89 NW14      30.00R WCI  28
HULETT           N/A    N/A N/A N/A MISG        N/A
NEWCASTLE      FAIR      37  34  87 NW23G36   29.93R WCI  26

$$
WYZ014>020-022>026-101>103-250000-
CENTRAL WYOMING

CITY           SKY/WX    TMP DP  RH WIND       PRES   REMARKS
BIG PINEY      FAIR      39  28  64 N16       30.27R WCI  30
PINEDALE       FAIR      34  28  80 W20G25    30.26S WCI  22
DUBOIS         FAIR      34  27  75 N9G18     30.20R WCI  26
LANDER         FAIR      46  28  49 NW16G30   30.10R
RIVERTON       FAIR      32  23  69 NE9       30.13R WCI  24
CASPER         FAIR      38  25  59 SW20G28   30.08R WCI  28
DOUGLAS        MOCLDY    46  27  47 NW22G29   30.01R

$$
WYZ021-027>030-104>119-250000-
SOUTHERN WYOMING

CITY           SKY/WX    TMP DP  RH WIND       PRES   REMARKS
EVANSTON       CLOUDY    34  26  72 SW14      30.39S WCI  25
KEMMERER       CLOUDY    30  27  86 W20       30.36R WCI  18
FORT BRIDGER   MOCLDY    38  29  71 W13G24    30.38R WCI  30
ROCK SPRINGS   PTSUNNY   36  24  62 W36G43    30.27R WCI  22
DIXON          CLOUDY    35  19  52 SW12      30.30R WCI  27
RAWLINS        FAIR      33  19  56 W28G36    30.18R WCI  20
SARATOGA       CLOUDY    34  19  55 W18G26    30.20S WCI  23
LARAMIE        PTSUNNY   36  19  50 W25G36    30.06R WCI  24
CHEYENNE       CLOUDY    43  22  43 NW20G28   30.02R
TORRINGTON     CLOUDY    45  33  63 W20G38    29.96R
PINE BLUFFS    CLOUDY    48  25  40 NW32G39   29.99R

$$



USA.gov is the U.S. government's official web portal to all federal, state and local government web resources and services.